    Orbital elements:
    2021 ER3                                                 Earth MOID = 0.0046 AU
    Epoch 2020 Dec. 17.0 TT = JDT 2459200.5                 Veres
    M 343.37295              (2000.0)            P               Q
    n   0.36682164     Peri.  313.06637     -0.44282686     -0.89649837
    a   1.9327073      Node   163.20226     +0.83602666     -0.41848500
    e   0.5579562      Incl.    2.76997     +0.32398117     -0.14546815
    P   2.69           H   26.0           G   0.15           U   6
    Residuals in seconds of arc
    210310 K88  0.0   0.1+    210310 L01  0.0   0.3-    210311 K88  0.2-  0.2+
    210310 K88  0.3-  0.3+    210311 K88  0.4-  0.3+    210311 K88  0.3+  0.3-
    210310 K88  0.3+  0.5-    210311 K88  0.1+  0.2+    210311 K88  0.7-  0.9+
    210310 K88  0.3+  0.0     210311 K88  0.3+  0.1-    210311 K88  0.1-  0.2+
    210310 K88  0.1+  0.0     210311 K88  0.3+  0.3-    210311 K88  0.3-  0.6+
    210310 K88  0.2-  0.3+    210311 K88  0.2-  0.4+    210311 K88  0.2-  0.3+
    210310 K88  0.1+  0.2-    210311 K88  0.2-  0.5+    210311 858  0.1+  0.3-
    210310 K88  0.0   0.2+    210311 K88  0.0   0.0     210311 858  0.1+  0.2-
    210310 K88  0.1-  0.2-    210311 K88  0.2-  0.2+    210311 858  0.1+  0.4-
    210310 K88  0.2-  0.2+    210311 L01  0.0   0.1-    210311 858  0.1+  0.2-
    210310 K63  0.2+  0.5-    210311 K88  0.0   0.4+    210311 I52  0.2-  0.1-
    210310 K88  0.5+  0.2+    210311 K88  0.2-  0.4+    210311 I52  0.5-  0.2+
    210310 L01  0.1+  0.5-    210311 L01  0.1+  0.2-    210311 I52  0.4-  0.2+
    210310 K88  0.4-  0.5+    210311 K88  0.0   0.4+    210311 I52  0.2-  0.1-
    210310 L01  0.0   0.5-    210311 K88  0.0   0.4+    210311 H36  0.9+  1.3-
    210310 K63  0.2+  0.6-    210311 L01  0.1-  0.0     210311 H36  1.1+  0.7-
    210310 K88  0.2+  0.2+    210311 K88  0.3-  0.4+    210311 H36 (1.2+  1.7-)
    210310 K88  0.1+  0.9+    210311 K88  0.3-  0.3+    210311 H36 (1.0+  1.6-)
    210310 K88  0.4+  0.1+    210311 L01  0.0   0.0     210311 N82  0.2-  0.2-
    210310 L01  0.1+  0.4-    210311 K88  0.2+  0.2+    210311 N82  0.3+  0.5-
    210310 K88  0.7-  0.6+    210311 K88  0.2-  0.3+    210311 N82  0.1-  0.3+
    210310 K63  0.0   0.7-    210311 L01  0.1-  0.2-    210311 033  0.3+  0.2-
    210310 K88  0.3-  0.4+    210311 L01  0.1+  0.1-    210311 033  0.2+  0.0
    210310 K88  0.0   0.4-    210311 L01  0.0   0.1-    210311 033  0.1+  0.0
    210310 K88  0.2-  0.0     210311 L01  0.0   0.1-    210311 J95  0.2-  0.0
    210310 L01  0.0   0.3-    210311 U55  0.2+  0.2+    210311 J95  0.1-  0.1-
    210310 K88  0.1-  0.1+    210311 U55  0.1+  0.2+    210311 J95  0.1+  0.1+
    210310 K63  0.2+  0.7-    210311 U55  0.5+  0.1+    210311 J95  0.0   0.1+
    210310 L01  0.1+  0.4-    210311 K88  0.1+  0.1-
    210310 K63  0.4+  0.2-    210311 K88  0.0   0.1-
    
    Ephemeris:
    2021 ER3                 a,e,i = 1.93, 0.56, 3                   q = 0.8543
    Date    TT    R. A. (2000) Decl.     Delta      r    Elong.  Phase     V
    2021 02 09    00 41 39.2 -02 21 02   0.2101  0.8628    48.8   120.7    27.2
    ...
    2021 02 24    00 57 29.2 +00 30 12   0.09871 0.9143    38.4   137.7    27.3
    ...
    2021 03 04    01 09 58.7 +05 53 32   0.04193 0.9575    35.1   143.5    26.4
    ...
    2021 03 10    07 32 48.9 +64 18 55   0.0073490.9953   107.6    72.0    17.8
    2021 03 11    11 23 15.0 +40 26 50   0.01076 1.0020   143.4    36.3    17.6
    2021 03 12    12 04 47.0 +26 10 51   0.01663 1.0088   155.6    24.0    18.2
    ...
    2021 03 18    12 40 10.5 +09 22 01   0.05786 1.0513   165.0    14.1    20.7
    ...
    2021 03 26    12 45 18.5 +05 57 49   0.1160  1.1118   169.7     9.3    22.2
    ...
    2021 04 10    12 46 44.2 +03 47 28   0.2362  1.2327   166.5    10.9    24.0
    
    M. P. C. Staff               (C) Copyright 2021 MPC           M.P.E.C. 2021-E118
    


    Read MPEC 2021-E117 Read MPEC 2021-E119


    MPEC number:

    Enter an MPEC number in one of the following forms:

    • 1997-B01 (the full form)
    • J97B01 (the packed version of the full form)
    • B01 (the abbreviated form)